SCP
3 4 4 4 5 5 4 3 3 3 4 3 3 3 3 2 2 1 1 1 1 0 0 0 0 1 1 1 1 1 1 0 0 0 0 0 0 0 0 0 0 0 0
4 4 5 6 7 6 4 3 3 3 3 3 3 3 3 2 2 1 1 1 1 0 0 0 1 1 1 1 1 1 1 1 0 0 0 0 0 0 0 0 0 0 0
4 4 5 6 7 5 4 3 3 3 3 3 3 2 3 3 2 1 1 1 1 0 0 0 1 1 1 1 1 1 1 1 1 1 1 1 0 0 0 0 0 0 0
4 4 4 5 4 3 3 2 3 3 3 3 3 2 2 2 2 1 1 1 1 1 0 0 1 1 1 1 1 1 1 1 1 1 1 1 1 1 0 0 1 1 1
4 4 3 3 2 2 2 2 2 3 3 3 3 2 2 2 2 2 2 1 1 1 1 1 1 1 1 1 1 1 1 1 1 1 1 1 1 1 1 1 1 1 1
4 3 3 2 2 2 2 2 2 2 3 3 2 2 2 2 2 2 2 2 1 1 1 1 1 1 1 1 1 1 1 1 1 1 1 1 1 1 1 1 1 1 1
4 4 3 3 3 3 2 2 2 2 3 3 3 2 2 2 2 2 2 2 1 1 1 1 1 1 1 1 1 1 1 1 1 1 2 1 1 2 2 2 1 1 1
5 4 4 3 4 4 3 3 3 3 2 3 3 2 2 2 2 2 2 2 1 1 1 1 1 1 1 1 1 1 1 1 1 1 2 2 2 2 2 2 2 2 1
4 4 3 3 3 3 4 5 5 4 2 2 2 2 2 2 2 2 2 2 1 1 1 1 1 1 1 1 1 2 2 2 2 2 2 2 2 2 2 2 3 3 2
2 2 2 2 2 2 4 7 8 4 2 2 2 2 2 2 2 2 2 2 2 1 1 1 1 1 1 1 1 2 2 2 2 2 2 2 2 2 2 3 3 3 2
1 1 1 1 1 2 3 6 5 3 2 2 2 2 2 2 2 2 3 3 2 2 1 1 1 1 1 1 1 1 1 1 2 2 1 2 2 2 2 3 3 3 2
1 1 1 2 2 2 2 3 2 2 1 2 2 2 3 3 3 2 3 3 3 2 1 1 1 1 1 1 1 1 1 1 1 1 1 1 2 2 2 2 3 3 2
1 1 2 2 2 2 2 2 2 2 1 1 2 2 2 3 3 2 2 2 2 2 1 1 1 1 1 1 1 1 1 1 1 1 1 1 1 2 2 2 3 3 3
2 2 2 2 2 2 2 2 2 2 2 2 2 2 2 2 2 2 2 2 1 1 1 1 1 1 1 1 1 1 1 1 1 2 2 2 1 2 2 2 2 2 2
2 3 3 3 3 3 3 2 2 2 2 2 2 2 2 2 2 2 1 1 1 1 1 1 1 1 1 1 0 1 1 2 2 3 3 2 2 1 1 1 1 2 2
3 3 4 3 3 3 4 3 2 2 2 2 2 2 2 2 2 2 1 1 1 1 1 1 1 1 1 1 0 0 1 2 3 4 4 3 2 1 1 1 1 1 1
4 4 5 5 4 4 4 4 3 2 2 2 2 2 2 3 2 2 2 1 1 1 1 1 1 1 1 1 0 0 1 2 3 4 4 3 2 2 1 1 1 0 0
5 6 6 6 4 4 4 4 4 3 3 2 3 3 3 3 2 2 2 2 1 1 1 1 1 1 1 0 0 0 1 1 2 3 3 3 2 2 2 1 1 1 1
6 7 7 6 5 4 3 4 4 4 4 3 3 3 3 3 3 3 2 2 1 1 1 1 1 1 1 0 0 0 1 1 2 2 2 2 1 1 1 1 1 1 1
6 7 6 5 5 4 4 4 5 6 6 6 5 4 3 3 3 3 3 2 2 1 1 1 1 1 1 1 0 0 1 2 2 2 2 1 1 1 0 1 1 1 2
6 6 5 4 5 5 5 5 5 6 8 8 6 4 3 3 3 4 4 3 3 2 2 2 2 2 2 1 1 0 1 2 2 3 3 2 1 0 0 0 1 1 1
5 5 4 4 5 5 6 6 6 7 8 7 5 4 4 4 4 4 4 4 3 3 3 2 2 2 2 2 1 0 0 1 2 3 4 3 1 0 0 0 0 0 0
4 4 4 4 5 6 6 6 7 8 8 6 5 4 5 5 5 5 4 4 3 3 3 3 2 2 3 2 1 1 0 0 1 2 3 2 1 0 0 0 0 0 0
4 4 4 4 5 6 6 6 8 9 8 7 5 5 6 6 5 5 4 4 3 3 2 2 2 2 3 3 2 2 1 0 1 1 1 1 0 0 0 0 0 0 0
4 5 5 4 5 5 5 6 7 9 8 7 7 6 6 6 5 5 4 3 2 2 2 1 2 2 2 3 2 2 1 1 0 0 0 0 0 0 0 0 0 0 0
5 5 5 4 4 4 4 5 6 8 8 8 8 7 6 5 4 5 4 3 2 1 1 1 1 2 2 2 2 1 1 1 0 0 0 0 0 0 0 0 0 0 0
Wind_Speed
8 8 9 9 9 9 10 10 11 10 8 7 7 7 6 6 5 5 6 7 6 6 5 4 5 5 4 4 5 5 5 4 3 3 3 4 5 4 4 4 4 5 5
9 9 9 9 10 10 10 10 11 10 9 7 6 5 5 5 5 5 5 7 7 7 6 6 5 5 4 5 5 5 4 4 4 4 3 4 5 5 5 5 5 5 5
9 9 9 9 10 10 11 9 10 10 10 8 6 5 4 4 5 6 6 7 7 8 7 7 6 5 6 5 6 6 6 4 4 4 3 3 2 2 4 5 5 5 4
9 9 9 10 10 9 9 9 10 10 9 9 8 9 8 7 7 6 5 7 8 8 7 7 7 6 6 5 7 7 5 5 4 4 4 5 3 3 2 4 4 5 5
8 9 9 9 8 8 8 9 9 9 10 9 9 9 8 7 6 6 6 6 6 8 8 8 7 7 6 6 6 5 6 5 5 4 4 5 4 6 4 3 2 3 3
8 8 8 8 7 8 7 8 8 9 9 10 10 10 10 8 7 7 7 6 5 6 8 8 7 7 6 6 6 6 7 6 5 5 5 4 4 4 4 4 4 3 2
9 9 9 9 8 8 8 7 8 8 9 10 10 10 10 9 8 8 7 6 5 6 7 7 7 7 6 6 6 6 6 6 6 6 5 5 5 4 4 5 4 3 3
9 9 9 8 8 9 8 7 8 8 8 9 9 8 8 7 7 8 6 6 5 5 5 7 7 7 7 7 6 6 7 6 6 6 5 5 5 5 5 5 4 5 4
9 9 9 8 8 8 8 8 8 7 7 7 8 8 8 7 6 6 6 5 5 5 6 7 7 7 7 7 6 5 5 5 5 5 6 5 4 5 5 5 5 5 5
9 9 8 8 8 8 7 7 7 7 7 7 7 6 6 6 5 5 5 4 4 4 5 6 6 6 6 6 6 6 5 5 5 4 4 5 5 4 4 4 4 4 5
9 9 8 8 8 8 8 7 6 6 6 6 6 5 5 5 5 4 4 4 4 4 5 5 5 5 5 5 5 6 5 5 5 5 5 5 5 4 4 4 4 4 3
9 9 9 8 8 8 7 7 7 6 5 5 5 5 4 4 4 4 4 3 3 3 4 4 4 4 4 4 5 6 5 5 5 4 4 4 3 3 4 3 3 3 3
8 9 9 8 8 7 7 7 7 6 6 5 5 5 4 4 4 3 3 2 2 2 2 3 3 3 3 3 3 3 3 3 3 2 3 3 3 3 2 3 3 2 2
8 8 8 8 7 7 7 6 6 6 6 5 5 5 4 4 4 3 3 2 2 2 2 2 2 2 2 2 2 2 2 1 1 0 1 1 1 2 2 2 2 2 1
9 9 8 8 8 7 7 6 6 6 6 5 5 5 4 4 4 4 3 3 2 2 2 2 2 2 1 1 1 2 2 2 2 2 1 2 4 5 3 1 1 1 2
9 9 9 9 9 8 8 7 7 6 6 6 5 5 5 5 4 4 4 4 3 3 3 2 3 2 2 5 4 1 2 2 2 2 2 4 5 7 9 10 9 6 2
8 9 8 8 8 8 8 8 8 7 7 6 6 5 5 5 5 5 5 4 4 4 4 3 3 4 6 7 6 4 3 3 3 3 3 3 5 5 6 8 9 10 10
7 8 7 7 8 8 8 8 8 8 7 7 6 6 6 6 6 5 5 5 5 4 4 4 5 5 6 7 6 6 5 5 5 4 4 5 4 4 5 6 7 8 8
6 6 6 7 7 8 8 8 8 8 7 7 6 6 6 6 6 5 5 5 5 5 5 5 6 6 6 6 5 3 5 6 6 6 6 5 6 6 5 7 7 8 7
5 6 6 7 7 7 8 8 8 8 7 7 7 6 6 6 6 6 6 5 5 6 6 6 6 6 6 6 5 2 4 6 6 6 6 8 7 6 5 6 6 7 6
6 6 6 6 6 7 8 8 8 7 7 7 7 7 6 7 7 6 5 6 6 6 6 7 6 6 6 6 6 4 3 5 6 5 5 6 8 7 7 5 5 5 4
6 6 6 6 6 6 7 8 7 7 7 7 7 7 6 6 6 7 6 6 6 7 6 6 6 5 5 5 6 6 6 4 6 5 6 6 8 8 7 6 6 3 1
5 5 6 6 5 5 6 7 7 8 8 8 8 7 7 6 6 6 7 6 5 5 5 5 5 5 5 6 8 8 7 6 6 7 10 9 8 8 8 7 3 2 2
5 5 6 6 5 5 5 6 7 7 8 8 8 7 7 6 6 4 4 4 4 4 5 5 5 5 4 5 5 6 7 8 8 8 9 8 6 6 7 5 3 3 4
4 5 5 6 6 5 5 6 7 8 8 8 8 7 7 7 6 6 5 3 4 3 3 4 5 5 5 4 4 3 5 5 5 6 5 5 5 4 4 4 3 3 3
4 5 6 6 6 6 6 5 6 7 8 8 7 6 6 6 6 7 7 12 9 10 9 8 5 6 7 8 8 8 8 7 4 4 5 4 4 4 4 3 3 3 3
Wind_Direction
168 169 174 177 176 181 186 191 192 186 183 182 186 186 187 192 196 202 197 202 207 199 213 215 187 214 207 212 205 204 200 215 207 221 207 207 210 205 206 218 222 209 208
165 166 171 171 179 184 192 197 193 189 190 189 189 191 187 197 196 205 200 209 212 210 207 215 211 204 206 213 215 214 233 216 206 235 236 220 197 203 208 202 213 226 215
170 166 168 173 177 183 191 194 192 194 196 190 186 186 183 201 199 205 204 208 209 212 216 208 219 211 216 207 210 213 225 234 219 229 252 262 248 198 184 206 210 216 221
168 166 170 176 183 186 186 187 188 193 198 194 196 197 199 203 205 208 202 202 208 213 210 208 211 218 224 211 217 211 223 231 231 216 235 267 310 279 212 196 195 201 218
166 167 171 175 177 180 180 181 185 190 196 200 200 205 211 212 206 206 202 208 209 215 213 209 210 214 224 223 231 215 227 228 234 234 225 230 234 249 262 249 223 201 205
160 161 161 162 169 173 175 176 182 192 196 199 202 208 213 214 213 208 206 208 205 209 209 211 212 217 223 218 220 224 222 235 241 249 245 237 238 240 242 244 240 230 207
158 160 161 162 165 171 174 177 184 192 196 197 202 207 212 213 215 215 212 214 210 206 205 212 210 217 224 227 225 223 237 229 232 236 241 244 246 254 256 256 252 248 224
155 158 160 159 164 168 172 177 184 190 194 196 199 205 211 213 215 212 214 210 215 214 205 212 215 219 225 228 225 230 226 226 231 235 238 247 249 249 250 255 259 254 243
150 154 154 157 162 167 170 174 177 181 190 194 193 199 207 215 219 210 213 215 210 212 208 212 214 217 221 226 225 231 228 223 228 228 224 238 247 247 253 257 262 264 261
150 154 155 156 159 163 163 167 170 176 183 188 194 190 197 203 208 212 211 213 209 213 213 215 215 216 216 216 222 223 220 220 228 242 248 245 246 250 251 254 256 261 267
153 154 156 157 160 159 156 158 162 169 175 180 181 178 184 185 188 195 201 202 206 202 211 217 217 215 213 212 215 224 218 219 224 233 235 241 253 250 251 250 250 253 254
153 154 154 157 162 159 156 157 161 164 169 166 166 170 175 176 181 184 189 193 206 209 206 212 214 215 211 213 217 221 219 219 222 224 228 240 237 239 259 261 255 253 251
158 158 157 160 162 161 160 160 163 161 163 161 161 163 170 169 173 175 176 181 197 203 202 197 199 200 204 211 216 215 211 213 217 222 224 234 238 247 250 257 254 247 239
163 165 162 161 161 161 160 159 154 152 155 154 153 157 166 166 169 167 161 161 165 169 178 178 183 180 177 181 194 193 184 177 157 158 232 250 249 247 242 235 238 233 218
169 169 168 164 165 163 163 159 156 155 151 148 150 152 155 154 153 150 145 141 142 140 128 126 123 116 127 120 137 153 144 138 121 98 77 61 61 50 38 36 107 182 204
174 171 171 170 171 169 168 162 160 157 153 152 153 151 148 143 139 136 135 129 124 118 112 113 117 114 93 68 65 94 129 123 115 110 105 101 90 84 75 66 56 44 45
172 172 173 174 174 172 169 165 161 159 157 152 152 149 141 135 129 129 127 121 114 110 108 107 106 98 75 73 73 70 98 99 89 85 84 84 84 94 100 92 82 62 48
169 168 167 164 165 163 162 159 157 159 156 150 146 143 139 131 128 128 124 119 115 109 104 99 96 94 82 75 80 83 96 90 82 77 78 84 83 76 91 95 85 74 60
158 158 158 154 150 151 154 156 157 157 156 151 147 144 142 137 135 133 125 119 118 114 110 104 99 98 90 72 75 89 105 96 86 75 68 77 84 62 76 102 99 92 88
137 139 139 137 139 144 150 154 156 155 153 147 142 139 139 138 135 132 127 123 119 115 111 99 94 93 91 75 71 81 115 109 105 94 82 68 76 63 57 97 102 100 93
122 127 129 130 133 142 146 147 146 144 140 137 134 130 134 134 130 127 123 123 118 112 107 102 95 91 87 87 69 51 103 116 113 106 96 83 77 72 58 71 86 92 104
117 123 123 120 125 137 141 139 136 133 134 133 129 128 132 133 130 127 123 125 126 122 116 110 103 94 90 83 84 72 65 77 107 104 100 98 93 84 73 78 82 92 132
107 115 118 114 115 129 139 139 135 136 134 131 129 127 127 125 127 131 135 136 136 134 130 128 121 110 103 95 89 89 81 76 90 91 94 104 113 115 95 87 94 155 105
112 118 118 116 114 117 124 130 132 134 134 133 132 131 128 123 118 121 129 133 137 138 134 131 125 121 119 116 121 122 119 117 112 110 113 113 98 95 98 115 108 77 62
108 116 118 119 118 117 117 125 136 139 136 132 131 130 126 121 109 88 59 77 72 72 124 134 137 139 134 108 88 123 123 119 115 128 129 124 118 106 100 98 88 88 98
108 108 110 114 115 117 117 124 138 142 140 138 137 135 133 130 128 118 93 55 60 67 65 59 78 95 99 111 106 96 92 97 118 130 117 112 110 108 109 112 109 96 82